Location: Vinland
(47.7731°N, 122.6974°W)
Time: 01:53:51
(UTC+00:00)

Transit 4A - Pass Details

Date: 30 March 2023
Orbit: 864 x 979 km, 66.8° (Epoch: 29 May)

Event Time Altitude Azimuth Distance (km) Brightness Sun altitude
Rises 11:45:16 0° 155° (SSE) 3,433 10.8 -21.1°
Reaches altitude 10° 11:49:03 10° 130° (SE) 2,511 10.4 -20.5°
Maximum altitude 11:51:45 14° 102° (ESE) 2,279 10.6 -20.1°
Drops below altitude 10° 11:54:27 10° 74° (ENE) 2,540 11.3 -19.8°
Sets 11:58:19 0° 49° (NE) 3,507 12.4 -19.2°
